Location: Apeadero de Los Molinos-Guadarrama
(40.7091°N, 4.0689°W)
Time: 16:03:06
(UTC+00:00)

X-37B - Pass Details

Date: 03 October 2021
Orbit: 385 x 389 km, 45.0° (Epoch: 17 October)

Event Time Altitude Azimuth Distance (km) Brightness Sun altitude
Exits shadow 03:57:24 21° 86° (E) 941 3.2 -26.5°
Drops below altitude 10° 03:58:37 10° 94° (E) 1,410 4.3 -26.3°
Sets 04:00:44 0° 99° (E) 2,264 5.4 -25.9°
